This demonstration page uses our WeatherBlox Daily Observations layout. Learn more.

Left ArrowRight Arrow

41.12389, -100.76542

Hourly Observations for March 16, 2020

Temp ( °F °C ) Dew Point ( °F °C ) Humidity (%) Winds ( mph kmh ) Pressure ( in mb ) Visibility ( mi km ) Precip ( " mm )
12:53 am 00:53 Cloudy 34 1.1 32 0 92 92 S 9 15 30.22 1024 8 13 0.00 0.00
1:53 am 01:53 Cloudy 34 1.1 32 0 92 92 S 7 11 30.20 1023 8 13 0.00 0.00
2:02 am 02:02 Cloudy 35 1.7 32 0 89 89 S 6 9 30.22 1024 10 16 0.00 0.00
2:53 am 02:53 Cloudy 35 1.7 31 -0.6 85 85 S 7 11 30.20 1023 10 16 0.00 0.00
3:53 am 03:53 Cloudy 34 1.1 32 0 92 92 SE 5 7 30.19 1022 10 16 0.00 0.00
4:53 am 04:53 Cloudy 34 1.1 32 0 92 92 SSE 5 7 30.17 1022 7 11 0.00 0.00
5:17 am 05:17 Cloudy 34 1.1 32 0 92 92 SSE 6 9 30.20 1023 7 11 0.00 0.00
5:53 am 05:53 Cloudy with Mist and Fog 34 1.1 32 0 92 92 SE 5 7 30.19 1022 6 10 0.00 0.00
6:53 am 06:53 Cloudy with Mist and Fog 34 1.1 32 0 92 92 ESE 5 7 30.20 1023 4 6 0.00 0.00
7:53 am 07:53 Cloudy with Mist and Fog 34 1.1 31 -0.6 89 89 SE 5 7 30.22 1023 4 6 0.00 0.00
8:15 am 08:15 Cloudy with Mist and Fog 34 1.1 32 0 92 92 ESE 3 6 30.25 1024 3 5 0.00 0.00
8:53 am 08:53 Cloudy with Mist and Fog 34 1.1 32 0 92 92 Calm 30.23 1024 3 5 0.00 0.00
9:53 am 09:53 Cloudy 36 2.2 33 0.6 89 89 Calm 30.24 1024 10 16 0.00 0.00
10:23 am 10:23 Cloudy 37 2.8 32 0 82 82 NNE 3 6 30.26 1025 10 16 0.00 0.00
10:53 am 10:53 Cloudy 38 3.3 34 1.1 86 86 NNE 5 7 30.24 1024 10 16 0.00 0.00
11:40 am 11:40 Mostly Cloudy 42 5.6 34 1.1 73 73 ENE 9 15 30.22 1023 10 16 0.00 0.00
11:53 am 11:53 Cloudy 43 6.1 35 1.7 74 74 ENE 12 19 30.22 1024 10 16 0.00 0.00
12:53 pm 12:53 Cloudy 43 6.1 33 0.6 68 68 NE 10 17 30.22 1023 10 16 0.00 0.00
1:53 pm 13:53 Cloudy 42 5.6 34 1.1 73 73 NNE 12 19 30.22 1024 10 16 0.00 0.00
2:53 pm 14:53 Cloudy 43 6.1 34 1.1 71 71 NE 13 20 30.22 1024 10 16 0.00 0.00
3:53 pm 15:53 Cloudy 41 5 33 0.6 73 73 NNE 12 19 30.22 1023 10 16 0.00 0.00
4:53 pm 16:53 Cloudy 40 4.4 33 0.6 77 77 NE 14 22 30.23 1024 10 16 0.00 0.00
5:34 pm 17:34 Cloudy 40 4.4 32 0 73 73 NE 10 17 30.23 1024 10 16 0.00 0.00
5:53 pm 17:53 Cloudy 39 3.9 32 0 76 76 ENE 12 19 30.22 1024 10 16 0.00 0.00
6:16 pm 18:16 Cloudy 39 3.9 32 0 76 76 NE 12 19 30.24 1024 10 16 0.00 0.00
6:53 pm 18:53 Cloudy 39 3.9 31 -0.6 73 73 ENE 13 20 30.24 1024 10 16 0.00 0.00
7:33 pm 19:33 Cloudy 37 2.8 31 -0.6 79 79 NE 10 17 30.29 1026 10 16 0.00 0.00
7:53 pm 19:53 Cloudy 37 2.8 31 -0.6 79 79 ENE 8 13 30.29 1026 10 16 0.00 0.00
8:53 pm 20:53 Cloudy 36 2.2 31 -0.6 82 82 NE 7 11 30.31 1026 10 16 0.00 0.00
9:06 pm 21:06 Cloudy 36 2.2 30 -1.1 79 79 NE 7 11 30.34 1027 10 16 0.00 0.00
9:17 pm 21:17 Cloudy 36 2.2 30 -1.1 79 79 NE 8 13 30.34 1027 10 16 0.00 0.00
9:53 pm 21:53 Cloudy 36 2.2 30 -1.1 79 79 ENE 6 9 30.32 1027 10 16 0.00 0.00
10:53 pm 22:53 Cloudy 36 2.2 30 -1.1 79 79 NE 6 9 30.33 1027 10 16 0.00 0.00
11:53 pm 23:53 Cloudy 35 1.7 30 -1.1 82 82 ENE 7 11 30.33 1027 10 16 0.00 0.00

Powered by AerisWeather